Location: Cisewo
(53.3833°N, 14.9000°E)
Time: 11:34:57
(UTC+00:00)

Cosmos 2082 Rocket - Pass Details

Date: 18 April 2021
Orbit: 835 x 852 km, 71.0° (Epoch: 15 May)

Event Time Altitude Azimuth Distance (km) Brightness Sun altitude
Rises 23:41:24 0° 327° (NNW) 3,403 6.0 -24.8°
Reaches altitude 10° 23:44:05 10° 337° (NNW) 2,463 5.3 -24.7°
Maximum altitude 23:49:13 34° 42° (NE) 1,353 3.7 -24.6°
Drops below altitude 10° 23:54:17 10° 107° (ESE) 2,448 4.6 -24.4°
Sets 23:56:57 0° 116° (ESE) 3,379 5.2 -24.3°
